Regional Weather Roundup
Issued by NWS

Home | Current Version | Previous Version | Graphics & Text | Print | Product List | Glossary On
Versions: 1 2 3 4 5 6 7 8 9 10 11 12 13 14 15 16 17 18 19 20 21 22 23 24 25 26 27 28 29 30 31 32 33 34 35 36 37 38 39 40 41 42 43 44 45 46 47 48 49 50
000
ASUS43 KMKX 290011
RWRWI

WISCONSIN REGIONAL WEATHER ROUNDUP
NATIONAL WEATHER SERVICE MILWAUKEE/SULLIVAN WI
700 PM CDT THU APR 28 2016

NOTE: "FAIR" INDICATES FEW OR NO CLOUDS BELOW 12,000 FEET WITH NO
SIGNIFICANT WEATHER AND/OR OBSTRUCTIONS TO VISIBILITY.

WIZ001-002-006>008-014>016-023>028-290100-
NORTHWEST WISCONSIN

CITY           SKY/WX    TMP DP  RH WIND       PRES   REMARKS
SUPERIOR ARPT  CLOUDY    38  32  80 NE7       30.13S WCI  32
6HR MIN TEMP:  37; 6HR MAX TEMP:  44;

ASHLAND        SUNNY     41  29  62 NE9       30.13S
6HR MIN TEMP:  41; 6HR MAX TEMP:  47;

HAYWARD        PTSUNNY   45  26  47 NE13      30.07S
6HR MIN TEMP:  45; 6HR MAX TEMP:  54;

SIREN          CLOUDY    47  25  41 NE7       30.07R
6HR MIN TEMP:  47; 6HR MAX TEMP:  53;

CUMBERLAND     CLOUDY    45  34  65 CALM      30.06R
RICE LAKE      CLOUDY    45  33  65 S8        30.06S
6HR MIN TEMP:  45; 6HR MAX TEMP:  52;

CHETEK         CLOUDY    43  36  75 S3        30.06R
6HR MIN TEMP:  43; 6HR MAX TEMP:  49;

LADYSMITH      CLOUDY    48  33  54 W6        30.05R
6HR MIN TEMP:  48; 6HR MAX TEMP:  53;

EAU CLAIRE     LGT RAIN  41  37  86 SE7       30.07R FOG
6HR MIN TEMP:  41; 6HR MAX TEMP:  43; 6HR PCP:  0.17;

MENOMONIE      DRIZZLE   40  40  99 NE6       30.08R
6HR MIN TEMP:  39; 6HR MAX TEMP:  43; 6HR PCP:  0.10;

NEW RICHMOND   RAIN      41  36  82 E5        30.07S
6HR MIN TEMP:  40; 6HR MAX TEMP:  43; 6HR PCP:  0.07;

OSCEOLA        LGT RAIN  42  42 100 SW3       30.11R
6HR MIN TEMP:  42; 6HR MAX TEMP:  47; 6HR PCP:  0.03;

$$

WIZ003>005-009-010-017-018-290100-
NORTH CENTRAL WISCONSIN

CITY           SKY/WX    TMP DP  RH WIND       PRES   REMARKS
MANITOWISH WTR PTCLDY    51  30  45 NE6       30.02R
6HR MIN TEMP:  46; 6HR MAX TEMP:  55;

ARBOR VITAE    CLEAR     55  22  28 NE3       30.01R
6HR MIN TEMP:  52; 6HR MAX TEMP:  57;

WOODRUFF       CLEAR     55  22  28 NE3       30.01R
6HR MIN TEMP:  52; 6HR MAX TEMP:  57;

RHINELANDER    CLOUDY    51  21  30 SE10      30.02R
6HR MIN TEMP:  49; 6HR MAX TEMP:  56;

EAGLE RIVER    CLOUDY    53  20  28 E8        30.01S
LAND O LAKES   CLOUDY    52  26  36 N10       30.03R
6HR MIN TEMP:  52; 6HR MAX TEMP:  56;

PHILLIPS       CLOUDY    49  29  45 N8        30.01R
TOMAHAWK       CLOUDY    47  29  49 S5        30.03R
6HR MIN TEMP:  47; 6HR MAX TEMP:  54;

MEDFORD        CLOUDY    40  35  82 CALM      30.03S
6HR MIN TEMP:  39; 6HR MAX TEMP:  47;

MERRILL        CLOUDY    44  32  61 S7        30.05S
$$

WIZ029-030-035-036-043>047-290100-
CENTRAL WISCONSIN

CITY           SKY/WX    TMP DP  RH WIND       PRES   REMARKS
WAUSAU         LGT RAIN  42  36  79 E10       30.04R
6HR MIN TEMP:  42; 6HR MAX TEMP:  48; 6HR PCP:  0.03;

MOSINEE        LGT RAIN  39  37  93 E8        30.05R WCI  34
MARSHFIELD     LGT RAIN  41  35  79 NE6       30.03R
6HR MIN TEMP:  39; 6HR MAX TEMP:  41; 6HR PCP:  0.03;

STEVENS POINT  CLOUDY    40  33  78 NE9       30.04S WCI  33
6HR MIN TEMP:  36; 6HR MAX TEMP:  40; 6HR PCP:  0.03;

WAUPACA        CLOUDY    44  33  63 E7        30.05R
6HR MIN TEMP:  39; 6HR MAX TEMP:  46; 6HR PCP:  0.04;

WAUTOMA        LGT RAIN  41  34  76 NE6       30.02F
6HR MIN TEMP:  39; 6HR MAX TEMP:  41;

WISC RAPIDS    CLOUDY    41  37  86 N7        30.04S
6HR MIN TEMP:  38; 6HR MAX TEMP:  41; 6HR PCP:  0.13;

CAMP DOUGLAS   CLOUDY    40  40 100 E7        30.03R
6HR MIN TEMP:  40; 6HR MAX TEMP:  41; 6HR PCP:  0.06;

$$

WIZ011>013-019>022-031-037>040-048>050-290100-
NORTHEAST WISCONSIN

CITY           SKY/WX    TMP DP  RH WIND       PRES   REMARKS
ANTIGO         CLOUDY    44  27  51 E14G20    30.05R
6HR MIN TEMP:  44; 6HR MAX TEMP:  49;

SHAWANO        CLOUDY    43  32  65 NE5       30.07R
6HR MIN TEMP:  43; 6HR MAX TEMP:  49;

OCONTO         CLOUDY    42  32  66 NE3       30.06S
6HR MIN TEMP:  42; 6HR MAX TEMP:  46;

STURGEON BAY   CLOUDY    43  28  56 NE7       30.08R
6HR MIN TEMP:  43; 6HR MAX TEMP:  45;

GREEN BAY      CLOUDY    44  33  65 NE7       30.05R
6HR MIN TEMP:  42; 6HR MAX TEMP:  48; 6HR PCP:  0.01;

MANITOWOC      CLOUDY    42  34  73 MISG      30.04S
6HR MIN TEMP:  41; 6HR MAX TEMP:  46;

APPLETON       CLOUDY    43  30  61 E6        30.03R
CLINTONVILLE   DRIZZLE   41  32  70 NE8       30.06R
OSHKOSH        CLOUDY    42  36  79 E10       30.03R
6HR MIN TEMP:  41; 6HR MAX TEMP:  45;

$$

WIZ032>034-041-042-053>061-290100-
SOUTHWEST WISCONSIN

CITY           SKY/WX    TMP DP  RH WIND       PRES   REMARKS
LA CROSSE      LGT RAIN  42  39  89 E6        30.03R
6HR MIN TEMP:  42; 6HR MAX TEMP:  43; 6HR PCP:  0.02;

SPARTA         CLOUDY    40  39  98 NE7       30.05R FOG     WCI  35
6HR MIN TEMP:  40; 6HR MAX TEMP:  41; 6HR PCP:  0.06;

VIROQUA        CLOUDY    39  39  98 E6        30.00S WCI  35
6HR MIN TEMP:  39; 6HR MAX TEMP:  40; 6HR PCP:  0.01;

BOSCOBEL       LGT RAIN  43  39  86 E6        30.01R
6HR MIN TEMP:  43; 6HR MAX TEMP:  46; 6HR PCP: TRACE;

PRAIRIE DU CHI CLOUDY    42  39  86 E5        30.00R FOG
6HR MIN TEMP:  42; 6HR MAX TEMP:  47; 6HR PCP:  0.01;

PLATTEVILLE    CLOUDY    43  41  95 NE9       29.98R
6HR MIN TEMP:  43; 6HR MAX TEMP:  46;

$$

WIZ056-057-062-063-064-067-068-290100-
SOUTH CENTRAL WISCONSIN

CITY           SKY/WX    TMP DP  RH WIND       PRES   REMARKS
REEDSBURG      CLOUDY    39  38  99 NE7       30.01R FOG     WCI  34
6HR MIN TEMP:  39; 6HR MAX TEMP:  40;

BARABOO/DELLS  CLOUDY    39  38  94 E6        30.02R FOG     WCI  35
6HR MIN TEMP:  39; 6HR MAX TEMP:  40;

LONE ROCK      CLOUDY    41  39  93 E7        30.02R
6HR MIN TEMP:  41; 6HR MAX TEMP:  44; 6HR PCP:  0.01;

MINERAL POINT  CLOUDY    41  41 100 NE9       29.98R FOG
MADISON        CLOUDY    40  36  86 E8        30.00S WCI  34
6HR MIN TEMP:  40; 6HR MAX TEMP:  42; 6HR PCP: TRACE;

MIDDLETON      CLOUDY    41  38  89 E7        30.01R
6HR MIN TEMP:  41; 6HR MAX TEMP:  43;

WATERTOWN      CLOUDY    40  37  92 E9        30.00S WCI  33
6HR MIN TEMP:  39; 6HR MAX TEMP:  40;

MONROE         CLOUDY    41  39  93 NE8       29.97S FOG
JANESVILLE     CLOUDY    43  41  93 E10       29.98R FOG
$$

WIZ051-052-058>065-066-070>072-290100-
SOUTHEAST WISCONSIN

CITY           SKY/WX    TMP DP  RH WIND       PRES   REMARKS
MILWAUKEE      CLOUDY    40  37  89 NE13      30.00S WCI  32
6HR MIN TEMP:  39; 6HR MAX TEMP:  41;

WAUKESHA       CLOUDY    37  36  93 NE10      30.01R WCI  30
MILWAUKEE/TIMM CLOUDY    39  36  87 NE9       30.01S WCI  33
RACINE         CLOUDY    41  37  86 NE12      30.00S
6HR MIN TEMP:  40; 6HR MAX TEMP:  42;

BURLINGTON     CLOUDY    38  38  97 NE8       29.99R FOG     WCI  32
6HR MIN TEMP:  38; 6HR MAX TEMP:  42;

KENOSHA        CLOUDY    41  38  89 NE10      29.98S
6HR MIN TEMP:  40; 6HR MAX TEMP:  44;

FOND DU LAC    LGT RAIN  40  37  89 E9        30.03R FOG     WCI  34
6HR MIN TEMP:  40; 6HR MAX TEMP:  44; 6HR PCP:  0.01;

SHEBOYGAN      CLOUDY    41  36  82 E9        30.03R
6HR MIN TEMP:  38; 6HR MAX TEMP:  42; 6HR PCP: TRACE;

WEST BEND      CLOUDY    37  36  93 E12G18    30.02R WCI  30
JUNEAU         CLOUDY    40  35  83 NE10      30.02R WCI  33
6HR MIN TEMP:  38; 6HR MAX TEMP:  40;

$$

LSZ147-162-290100-
LAKE SUPERIOR

STATION/POSITION TIME  TEMP    WIND        PRES    WAVE
                       AIR SEA DIR/SP/G            HT/PER
                 (UTC) (F)     (DEG/KT/KT) (MB)    (FT/S)
W MID LAKE BUOY  2350   38 36   70/ 14/ 16 1020.7F   3/ 5
DEVILS ISLAND    0000   38      80/  9/ 10 1021.2R
SAXON HARBOR     2300   39      30/ 11/ 15 1019.3
$$

LMZ867-665-643>646-290100-
LAKE MICHIGAN

STATION/POSITION TIME  TEMP    WIND        PRES    WAVE
                       AIR SEA DIR/SP/G            HT/PER
                 (UTC) (F)     (DEG/KT/KT) (MB)    (FT/S)
CHAMBERS ISLAND  2300   44      50/  5/  7 1017.9S
N MID LAKE BUOY  2350   40 38   60/  8/ 10 1018.0F   1/ C1F1C2F2C3F3C4F4C5F5C6F6C7F7C8M1C9M2Ca!


USA.gov is the U.S. government's official web portal to all federal, state and local government web resources and services.